User: anonymous   Login
Location: Berg
(47.2344°N, 9.5296°E)
Time: 06:47:48
(UTC+00:00)
Language:

Cosmos 2098 Rocket - Orbit

View from above orbital plane
View from above orbital plane
View from above satellite
View from above satellite

Ground track
Ground track

The orbit data is extracted from the following two-line orbital elements,

1 20775U 90078B   21108.59846179  .00003034  00000-0  14725-3 0  9998
2 20775  82.9268 334.7896 0567621 328.7428  28.1121 14.35605422549509
Epoch (UTC): 18 April 2021 14:21:47
Eccentricity: 0.0567621
inclination: 82.9268°
perigee height: 367 km
apogee height: 1179 km
right ascension of ascending node: 334.7896°
argument of perigee: 328.7428°
revolutions per day: 14.35605422
mean anomaly at epoch: 28.1121°
orbit number at epoch: 54950

The dashed part of the orbit path shows where the satellite is in the earth's shadow,  

DLR